HYLAS 4

Last updated on Tue Sep 22 2026 00:03:14 GMT+0000 (Coordinated Universal Time)

1 43272U 18033B 26264.41115699 -.00000237 00000+0 00000+0 0 9990 2 43272 0.0864 269.7622 0001014 264.7815 300.2742 1.00272486 31036
UTC large
Height (km)
Speed (km/s)
/
Latitude / Longitude
Inclination (degrees)
Orbital Period (minutes)
Azimuth
Elevation
Range (km)
Doppler Factor

Next 0 passes for location: London (51.5072 / 0.1276)

No passes found over London.
HYLAS 4